Weather Roundup
Issued by NWS

Home | Current Version | Previous Version | Text Only | Print | Product List | Glossary On
Versions: 1 2 3 4 5 6 7 8 9 10 11 12 13 14 15 16 17 18 19 20 21 22 23 24 25 26 27 28 29 30 31 32 33 34 35 36 37 38 39 40 41 42 43 44 45 46 47 48 49 50
000
NZUS93 KARX 301910
HRRWXR

CURRENT HOURLY OBSERVATIONS ACROSS
MUCH OF THE UPPER MISSISSIPPI VALLEY
NATIONAL WEATHER SERVICE LA CROSSE WI
200 PM CDT SUN AUG 30 2015


...SOUTHEAST MINNESOTA...


CITY           SKY/WX    TMP DP  RH WIND       PRES   REMARKS
ROCHESTER      PTSUNNY   70  64  81 S14       30.05F
ROCHESTER/MAYO FAIR      70  62  76 S12       30.04F
WINONA         CLOUDY    70  63  78 SW5       30.04F
AUSTIN         PTSUNNY   72  64  78 S12       30.04F
ALBERT LEA     SUNNY     72  64  78 S8        30.03F
DODGE CENTER   MOSUNNY   70  63  78 S12       30.03F
PRESTON        CLOUDY    68  62  79 S8        30.07S
OWATONNA       SUNNY     75  64  69 S12       30.01F
FARIBAULT      SUNNY     75  66  73 S10       30.00F
$$

...ELSEWHERE IN MINNESOTA...


CITY           SKY/WX    TMP DP  RH WIND       PRES   REMARKS
MINNEAPOLIS    MOSUNNY   77  62  59 S9        29.97F
INTNL FALLS    MOSUNNY   79  68  69 VRB6      29.82F
DULUTH         SUNNY     78  65  63 SW10      29.91F
RED WING       SUNNY     77  63  61 S8        29.98F
REDWOOD FALLS  SUNNY     80  66  62 S15       29.93F
MANKATO        SUNNY     73  63  68 S13G18    29.99S
WORTHINGTON    SUNNY     73  64  73 S14       29.99F
FAIRMONT       SUNNY     75  63  64 S14       30.00S
$$

...SOUTHWEST WISCONSIN...


CITY           SKY/WX    TMP DP  RH WIND       PRES   REMARKS
LA CROSSE      CLOUDY    73  64  73 S10       30.04F
PRAIRIE DU CHI CLOUDY    72  61  67 S5        30.06F
BOSCOBEL       CLOUDY    73  63  70 W7        30.07S
LONE ROCK      CLOUDY    74  62  66 W7        30.06F
PLATTEVILLE    PTSUNNY   73  65  77 S6        30.08S
FORT MC COY    MOSUNNY   74  61  61 S8        30.06S
CAMP DOUGLAS   PTSUNNY   75  72  88 S5        30.04F
VIROQUA          N/A     71  63  75 S8        30.07F
WIS DELLS      PTSUNNY   73  61  65 S5        30.06F
$$

...ELSEWHERE IN WISCONSIN...


CITY           SKY/WX    TMP DP  RH WIND       PRES   REMARKS
MILWAUKEE      PTSUNNY   71  63  75 SE3       30.07F
MADISON        MOSUNNY   71  61  70 S6        30.06F
GREEN BAY      PTSUNNY   72  63  73 SW10      30.04F
EAU CLAIRE     SUNNY     75  64  68 S13       30.00F
BLACK RVR FLS  FAIR      75  62  62 SW9       30.04S
MEDFORD        MOSUNNY   73  64  75 S12       30.03F
WAUSAU         SUNNY     74  62  66 S9        30.02F
WIS RAPIDS     SUNNY     74  61  63 SW9       30.05F
MARSHFIELD     SUNNY     76  62  62 S12       30.04F
RICE LAKE      SUNNY     73  63  70 SE10      30.01S
$$

...NORTHEAST IOWA...


CITY           SKY/WX    TMP DP  RH WIND       PRES   REMARKS
DECORAH        CLOUDY    72  64  78 SW8       30.06S
MASON CITY     PTSUNNY   72  65  78 S9        30.06F
CHARLES CITY   CLOUDY    72  66  83 SW8       30.07S
OELWEIN        CLOUDY    72  64  78 S8        30.08S
$$

...ELSEWHERE IN IOWA...


CITY           SKY/WX    TMP DP  RH WIND       PRES   REMARKS
DES MOINES     CLOUDY    75  65  70 S3        30.05F
IOWA CITY      PTSUNNY   75  64  68 W3        30.07F
FORT DODGE     CLOUDY    72  64  78 S12       30.05F
$$

...NORTHERN ILLINOIS...


CITY           SKY/WX    TMP DP  RH WIND       PRES   REMARKS
CHICAGO-OHARE  PTSUNNY   73  63  70 N5        30.06F
CHICAGO-MIDWAY PTSUNNY   76  62  62 NW6       30.06F
MOLINE         MOSUNNY   79  64  60 NE3       30.05F
ROCKFORD       CLOUDY    74  61  63 VRB5      30.08F
PEORIA         PTSUNNY   82  68  62 VRB5      30.06F
$$

NOTE: "FAIR" INDICATES FEW OR NO CLOUDS BELOW 12,000 FEET WITH NO
SIGNIFICANT WEATHER AND/OR OBSTRUCTIONS TO VISIBILITY. WIND
SPEEDS ARE IN MILES-PER-HOUR.



USA.gov is the U.S. government's official web portal to all federal, state and local government web resources and services.